DW4596 Weather Reports


time (UTC)temp
F
wind
direction
speed
knots
gust
knots
rain 1hr
in
rain 24hr
in
rain mn
in
humidity
%
barometer
mb
20260505193014 64 245 13.0 0.0 0.00 0.00 0.00 72 1001.1
20260505191509 62 216 11.3 0.0 0.00 0.00 0.00 74 1000.9
20260505190007 61 206 11.3 0.0 0.00 0.00 0.00 75 1000.8
20260505184507 61 231 9.6 0.0 0.00 0.00 0.00 73 1001.0
20260505183012 61 236 10.4 0.0 0.00 0.00 0.00 74 1000.9
20260505181504 59 222 11.3 0.0 0.00 0.00 0.00 78 1001.0
20260505180001 57 184 9.6 0.0 0.00 0.00 0.00 79 1000.8
20260505174558 54 233 9.6 0.0 0.00 0.00 0.00 82 1000.9
20260505173000 54 221 9.6 0.0 0.00 0.00 0.00 82 1000.8
20260505171559 53 213 10.4 0.0 0.00 0.00 0.00 82 1000.8
20260505170057 53 233 12.2 0.0 0.00 0.00 0.00 81 1001.0
20260505164601 56 232 16.5 0.0 0.00 0.00 0.00 77 1000.9
20260505163054 56 229 16.5 0.0 0.00 0.00 0.00 76 1000.9
20260505161556 56 217 12.2 0.0 0.00 0.00 0.00 79 1000.5
20260505153107 61 234 12.2 0.0 0.00 0.00 0.08 71 1000.1
20260505151552 63 193 16.5 0.0 0.00 0.00 0.08 68 1000.0
20260505124558 63 190 13.0 0.0 0.00 0.00 0.08 69 998.8
20260505123058 63 184 13.0 0.0 0.00 0.00 0.08 69 998.9
20260505121553 62 182 12.2 0.0 0.00 0.00 0.08 71 998.8
20260505114552 62 178 11.3 0.0 0.00 0.00 0.08 72 998.8
20260505113111 62 187 12.2 0.0 0.00 0.00 0.08 73 998.7
20260505111552 60 178 9.6 0.0 0.00 0.00 0.08 75 998.7
20260505101554 58 155 7.0 0.0 0.00 0.00 0.07 81 998.4
20260505100054 58 177 7.8 0.0 0.00 0.00 0.07 81 998.5
20260505094552 58 154 10.4 0.0 0.00 0.00 0.07 79 998.9
20260505093102 58 176 10.4 0.0 0.00 0.00 0.07 79 998.4
20260505091552 60 202 12.2 0.0 0.00 0.00 0.05 73 999.1
20260505090051 61 200 10.4 0.0 0.00 0.00 0.04 69 998.9
20260505084553 60 190 8.7 0.0 0.00 0.00 0.04 70 999.0
20260505083055 60 188 8.7 0.0 0.00 0.00 0.04 69 999.2
20260505081553 60 184 10.4 0.0 0.00 0.00 0.04 68 999.3
20260505080054 60 186 9.6 0.0 0.00 0.00 0.04 68 999.3
20260505074550 57 181 8.7 0.0 0.00 0.00 0.04 70 999.4
20260505073100 57 213 7.8 0.0 0.00 0.00 0.04 70 999.5
20260505071552 56 178 6.1 0.0 0.00 0.00 0.04 74 999.4
20260505070052 56 177 6.1 0.0 0.00 0.00 0.04 77 999.4
20260505064558 59 218 13.9 0.0 0.00 0.00 0.02 65 999.4
20260505063055 60 204 13.0 0.0 0.00 0.00 0.02 65 1000.0
20260505061556 59 192 5.2 0.0 0.00 0.00 0.00 60 999.2
20260505060051 59 175 7.8 0.0 0.00 0.00 0.00 59 999.2
20260505054548 60 161 10.4 0.0 0.00 0.00 0.00 57 999.3
20260505053112 60 158 10.4 0.0 0.00 0.00 0.00 57 999.4
20260505051551 59 162 7.0 0.0 0.00 0.00 0.00 56 999.6
20260505041547 58 184 1.7 0.0 0.00 0.00 0.00 57 1000.0
20260505040046 58 196 1.7 0.0 0.00 0.00 0.00 58 1000.1
20260505034606 59 197 3.5 0.0 0.00 0.00 0.00 56 1000.0
20260505033054 59 190 3.5 0.0 0.00 0.00 0.00 56 1000.0
20260505031548 59 194 3.5 0.0 0.00 0.00 0.00 56 1000.2
20260505030051 59 207 4.3 0.0 0.00 0.00 0.00 57 1000.3
20260505024548 59 207 4.3 0.0 0.00 0.00 0.00 56 1000.2
20260505023049 59 209 4.3 0.0 0.00 0.00 0.00 56 1000.6
20260505021547 60 198 3.5 0.0 0.00 0.00 0.00 56 1000.5
20260505020047 60 188 2.6 0.0 0.00 0.00 0.00 55 1000.6
20260505014547 60 191 2.6 0.0 0.00 0.00 0.00 56 1000.7
20260505013049 60 190 3.5 0.0 0.00 0.00 0.00 56 1000.7
20260505011606 61 194 3.5 0.0 0.00 0.00 0.00 56 1000.8
20260505010050 61 201 5.2 0.0 0.00 0.00 0.00 56 1000.8
20260505004548 61 200 3.5 0.0 0.00 0.00 0.00 57 1000.9
20260505003054 61 219 3.5 0.0 0.00 0.00 0.00 56 1000.7
20260505001604 62 202 3.5 0.0 0.00 0.00 0.00 56 1000.6
20260505000105 62 190 4.3 0.0 0.00 0.00 0.00 55 1000.5
20260504234550 63 207 6.1 0.0 0.00 0.00 0.00 55 1000.4
20260504233103 63 200 6.1 0.0 0.00 0.00 0.00 55 1000.4
20260504231548 63 220 6.1 0.0 0.00 0.00 0.00 55 1000.4
20260504230048 63 191 7.0 0.0 0.00 0.00 0.00 55 1000.5
20260504224547 63 191 7.8 0.0 0.00 0.00 0.00 55 1000.5
20260504223049 63 196 7.8 0.0 0.00 0.00 0.00 54 1000.7
20260504221548 64 184 7.8 0.0 0.00 0.00 0.00 53 1000.8
20260504220047 64 225 7.8 0.0 0.00 0.00 0.00 54 1000.9
20260504214543 63 196 8.7 0.0 0.00 0.00 0.00 54 1001.0
20260504213048 63 218 8.7 0.0 0.00 0.00 0.00 54 1001.1
20260504211541 63 228 8.7 0.0 0.00 0.00 0.00 56 1001.1
20260504210039 62 229 8.7 0.0 0.00 0.00 0.00 56 1001.3
20260504204536 62 225 9.6 0.0 0.00 0.00 0.00 56 1001.5
20260504203037 62 242 8.7 0.0 0.00 0.00 0.00 56 1001.6
20260504201534 61 219 9.6 0.0 0.00 0.00 0.00 56 1001.7
20260504200033 61 228 10.4 0.0 0.00 0.00 0.00 55 1001.9
20260504194533 61 249 10.4 0.0 0.00 0.00 0.00 56 1002.1